Regional Weather Roundup
Issued by NWS

Home | Current Version | Previous Version | Text Only | Print | Product List | Glossary On
Versions: 1 2 3 4 5 6 7 8 9 10 11 12 13 14 15 16 17 18 19 20 21 22 23 24 25 26 27 28
000
ASUS45 KREV 250710
RWRNV
NEVADA REGIONAL WEATHER ROUNDUP
NATIONAL WEATHER SERVICE RENO NV
1200 AM PDT MON JUL 25 2016

NOTE: "FAIR" INDICATES FEW OR NO CLOUDS BELOW 12,000 FEET WITH NO
SIGNIFICANT WEATHER AND/OR OBSTRUCTIONS TO VISIBILITY.

NVZ001-003-004-250800-
WESTERN NEVADA

CITY           SKY/WX    TMP DP  RH WIND       PRES   REMARKS
RENO           CLEAR     74  31  20 S3        30.10R
CARSON CITY    FAIR      66  30  26 SE3       30.14R
MINDEN         FAIR      57  37  47 E9        30.13S
PYRAMID LAKE     N/A     79 N/A N/A SE10        N/A
FALLON         CLEAR     79  32  18 W12       30.02R
LOVELOCK       CLEAR     73  19  13 NW5       30.00R
$$

NVZ002-CAZ072-073-250800-
NORTHERN AND CENTRAL SIERRA

CITY           SKY/WX    TMP DP  RH WIND       PRES   REMARKS
S. LAKE TAHOE  CLEAR     52  37  56 CALM      30.25S
TRUCKEE        CLEAR     48  34  57 CALM      30.25R
SQUAW VLY 8000 NOT AVBL
MAMMOTH LAKES    N/A     59  28  29 NW3       30.30S
BRIDGEPORT       N/A     55  21  26 VRB3      30.25S
$$

NVZ030-031-036-250800-
NORTHERN NEVADA

CITY           SKY/WX    TMP DP  RH WIND       PRES   REMARKS
ELKO           CLEAR     70  23  17 E3        30.10R
WINNEMUCCA     CLEAR     57  16  20 S8        30.03R
WENDOVER       PTCLDY    72  28  20 W3        30.04F
$$

NVZ035-037-250800-
CENTRAL NEVADA

CITY           SKY/WX    TMP DP  RH WIND       PRES   REMARKS
ELY            CLEAR     68  21  16 S6        30.17R
EUREKA           N/A     60  24  25 S7        30.15R
$$

NVZ013-014-250800-
SOUTH CENTRAL NEVADA

CITY           SKY/WX    TMP DP  RH WIND       PRES   REMARKS
TONOPAH        CLEAR     82  15   8 W9        30.12R
$$

NVZ017-020-022-250800-
SOUTHERN NEVADA

CITY           SKY/WX    TMP DP  RH WIND       PRES   REMARKS
LAS VEGAS      PTCLDY    98  36  11 S13G20    29.81R
N. LAS VEGAS   CLEAR     97  47  18 S10       29.83R
NELLIS AFB     CLEAR     99  51  19 S14       29.81R
HENDERSON      CLEAR     93  44  18 S12       29.89S
MERCURY        PTCLDY    93  29  10 SW13G22   29.91F
$$




USA.gov is the U.S. government's official web portal to all federal, state and local government web resources and services.